Home > Weather > Nelson > Past weeks

Flag for Canada Weather for the Past 2 Weeks in Nelson, British Columbia, Canada

Now
68 °F

Mild.


Feels Like: 68 °F
Forecast: 48 / 58 °F
Wind: 13 mph from East

Location: Nelson

Current Time: Apr 28, 2016 at 5:06:15 PM

Latest Report: Apr 28, 2016 at 4:00 PM


Visibility: N/A

Pressure: 29.90 "Hg (28.01 "Hg at 560m altitude)

Humidity: 29%

Dew Point: 34 °F

Location of NelsonLocation

Historic Weather in Nelson — Graph

°F

Nelson Temperature Yesterday

Maximum temperature yesterday: 69 °F (at 5:00 PM)
Minimum temperature yesterday: 41 °F (at 2:00 AM)
Average temperature yesterday: 53 °F

High & Low Weather Summary for the Past Weeks

 TemperatureHumidityPressure
High78 °F (Apr 21, 4:00 PM)98% (Apr 14, 10:00 PM)30.49 "Hg (Apr 14, 10:00 PM)
Low36 °F (Apr 14, 4:00 AM)24% (Apr 20, 5:00 PM)29.65 "Hg (Apr 22, 7:00 AM)
Average53 °F67%29.99 "Hg
* Reported Apr 13 3:00 PM — Apr 28 3:00 PM, Nelson, Weather by CustomWeather, © 2016

Note: Actual official high and low records may vary slightly from our data, if they occured in-between our weather recording intervals... More about our weather records

Advertising

Nelson Weather History for the Previous 24 Hours

Scroll right to see more
 ConditionsComfort  
Time TempWeatherWind HumidityBarometerVisibility
3:00 PM
Thu, Apr 28
67 °FMild.10 mph31%29.91 "HgN/A
2:00 PM66 °FMild.12 mph31%29.93 "HgN/A
1:00 PM64 °FMild.10 mph35%29.95 "HgN/A
12:00 PM65 °FMild.10 mph35%29.97 "HgN/A
11:00 AM62 °FRefreshingly cool.8 mph43%29.99 "HgN/A
10:00 AM58 °FRefreshingly cool.7 mph54%30.01 "HgN/A
9:00 AM54 °FCool.7 mph60%30.03 "HgN/A
8:00 AM49 °FCool.3 mph68%30.03 "HgN/A
7:00 AM43 °FQuite cool.2 mph86%30.04 "HgN/A
6:00 AM41 °FQuite cool.2 mph88%30.02 "HgN/A
5:00 AM43 °FQuite cool.2 mph86%30.01 "HgN/A
4:00 AM42 °FQuite cool.1 mph86%30.00 "HgN/A
3:00 AM44 °FQuite cool.3 mph82%30.00 "HgN/A
2:00 AM44 °FQuite cool.1 mph87%29.98 "HgN/A
1:00 AM44 °FQuite cool.2 mph84%29.98 "HgN/A
12:00 AM44 °FQuite cool.2 mph81%29.96 "HgN/A
11:00 PM
Wed, Apr 27
49 °FCool.2 mph69%29.95 "HgN/A
10:00 PM49 °FCool.2 mph66%29.94 "HgN/A
9:00 PM51 °FCool.2 mph62%29.93 "HgN/A
8:00 PM57 °FRefreshingly cool.3 mph53%29.90 "HgN/A
7:00 PM65 °FMild.3 mph40%29.88 "HgN/A
6:00 PM67 °FMild.6 mph34%29.86 "HgN/A
5:00 PM69 °FMild.1 mph27%29.86 "HgN/A
Weather by CustomWeather, © 2016

See weather overviewHow to use our weather pages